Flag for Vietnam Weather past 2 weeks in Ho Chi Minh, Vietnam

Now
82 °F

Partly cloudy.


Feels Like: 88 °F
Forecast: 78 / 91 °F
Wind: 5 mph from Southwest

Location: Ho Chi Minh

Current Time: Sep 20, 2014 at 1:25:03 AM

Latest Report: Sep 20, 2014 at 1:00 AM


Visibility: N/A

Pressure: 29.77 "Hg

Humidity: 74%

Dew point: 73 °F

Location of Ho Chi MinhLocation

Historic Weather in Ho Chi Minh — Graph

°F

Ho Chi Minh temperature yesterday

Maximum temperature yesterday: 93 °F (at 11:30 AM)
Minimum temperature yesterday: 79 °F (at 1:00 AM)
Average temperature yesterday: 85 °F

Past Weeks' High & Low Weather Summary

 TemperatureHumidityPressure
High93 °F (Sep 19, 11:30 AM)94% (Sep 6, 1:30 AM)29.89 "Hg (Sep 6, 1:30 AM)
Low73 °F (Sep 18, 5:00 AM)52% (Sep 17, 1:00 PM)29.59 "Hg (Sep 16, 3:00 PM)
Average82 °F79%29.77 "Hg
* Reported Midnight between Sep 4 and Sep 5 — Sep 20 12:30 AM, Ho Chi Minh, Weather by CustomWeather, © 2014

Note: Actual official high and low records may vary slightly from our data, if they occured in-between our weather recording intervals... More about our weather records

Advertising

Ho Chi Minh weather history for previous 24 hours

 ConditionsComfort  
Time TempWeatherWind HumidityBarometerVisibility
12:30 AM
Sep 20
82 °FPartly cloudy.1 mph79%29.80 "HgN/A
12:00 AM82 °FPassing clouds.1 mph79%29.80 "HgN/A
11:30 PM
Sep 19
82 °FPassing clouds.3 mph79%29.80 "HgN/A
11:00 PM82 °FPassing clouds.5 mph79%29.80 "HgN/A
10:30 PM82 °FPassing clouds.3 mph79%29.80 "HgN/A
10:00 PM84 °FPassing clouds.5 mph74%29.80 "HgN/A
9:30 PM84 °FPassing clouds.3 mph74%29.83 "HgN/A
9:00 PM82 °FPassing clouds.2 mph79%29.80 "HgN/A
8:30 PM82 °FPassing clouds.5 mph79%29.80 "HgN/A
8:00 PM82 °FPassing clouds.No wind79%29.77 "HgN/A
7:30 PM81 °FPassing clouds.1 mph84%29.77 "HgN/A
7:00 PM81 °FThunderstorms. Passing clouds.2 mph79%29.77 "HgN/A
6:30 PM81 °FThunderstorms. Passing clouds.3 mph74%29.77 "HgN/A
6:00 PM84 °FThunderstorms. Passing clouds.13 mph62%29.77 "Hg5 mi
5:30 PM86 °FScattered clouds.3 mph70%29.74 "HgN/A
5:00 PM88 °FScattered clouds.7 mph62%29.74 "HgN/A
4:30 PM88 °FScattered clouds.5 mph62%29.71 "HgN/A
4:00 PM88 °FScattered clouds.5 mph66%29.71 "HgN/A
3:30 PM91 °FPartly sunny.2 mph59%29.71 "HgN/A
3:00 PM91 °FPartly sunny.8 mph59%29.74 "HgN/A
2:30 PM90 °FPartly sunny.9 mph63%29.74 "HgN/A
2:00 PM90 °FScattered clouds.6 mph59%29.74 "HgN/A
1:30 PM93 °FScattered clouds.5 mph56%29.77 "HgN/A
1:00 PM91 °FScattered clouds.5 mph56%29.77 "HgN/A
12:30 PM91 °FPartly sunny.8 mph59%29.80 "HgN/A
12:00 PM91 °FPartly sunny.6 mph59%29.80 "HgN/A
11:30 AM93 °FPartly sunny.6 mph56%29.83 "HgN/A
11:00 AM90 °FPartly sunny.5 mph63%29.86 "HgN/A
10:30 AM90 °FPartly sunny.6 mph67%29.86 "HgN/A
10:00 AM90 °FPartly sunny.6 mph67%29.86 "HgN/A
9:30 AM90 °FScattered clouds.6 mph67%29.89 "HgN/A
9:00 AM86 °FScattered clouds.6 mph75%29.89 "HgN/A
8:30 AM86 °FScattered clouds.5 mph75%29.89 "HgN/A
8:00 AM86 °FScattered clouds.6 mph75%29.89 "HgN/A
7:30 AM84 °FPassing clouds.2 mph79%29.86 "Hg5 mi
6:30 AM81 °FClear.1 mph89%29.86 "Hg5 mi
6:00 AM79 °FPassing clouds.1 mph89%29.83 "Hg4 mi
5:30 AM79 °FPassing clouds.2 mph89%29.83 "Hg5 mi
5:00 AM79 °FPassing clouds.2 mph89%29.80 "Hg5 mi
4:30 AM79 °FPassing clouds.2 mph89%29.80 "Hg3 mi
4:00 AM79 °FPassing clouds.5 mph89%29.80 "HgN/A
3:30 AM79 °FPassing clouds.6 mph89%29.80 "HgN/A
3:00 AM79 °FPassing clouds.3 mph89%29.80 "HgN/A
2:30 AM81 °FPassing clouds.6 mph84%29.80 "HgN/A
2:00 AM81 °FPassing clouds.3 mph84%29.80 "HgN/A
1:30 AM81 °FPassing clouds.5 mph84%29.80 "HgN/A
1:00 AM79 °FPassing clouds.5 mph89%29.80 "HgN/A
Weather by CustomWeather, © 2014

See weather overviewHow to use our weather pages